Shelby, NC

12:40 AM EST on January 17, 2018 (GMT -0500)
Shelby Municipal

Weather History for KEHO - April, 2013

Change the Weather History Date:

Thursday, April 11, 2013

  Actual Average (KHKY) Record (KHKY)
Temperature  
Mean Temperature 69 °F -  
Max Temperature 79 °F 69 °F 85 °F (1977)
Min Temperature 59 °F 44 °F 28 °F (1960)
Cooling Degree Days 4    
Growing Degree Days 19 (Base 50)    
Moisture  
Dew Point 60 °F    
Average Humidity 73    
Maximum Humidity 96    
Minimum Humidity 48    
Precipitation  
Precipitation 0.21 in - - ()
Sea Level Pressure  
Sea Level Pressure 29.90 in    
Wind  
Wind Speed 5 mph (South)    
Max Wind Speed 13 mph    
Max Gust Speed 18 mph    
Visibility 10 miles    
Events Rain    
Averages and records for this station are not official NWS values.
T = Trace of Precipitation, MM = Missing Value Source: NWS Daily Summary

Daily Weather History Graph

Daily Weather History Graph

Search for Another Location

Airport or City:

Trip Planner

Search our weather history database for the weather conditions in past years. The results will help you decide how hot, cold, wet, or windy it might be!

Date:

Astronomy

Apr. 11, 2013 Rise Set
Actual Time 6:59 AM EDT 7:56 PM EDT
Civil Twilight 6:33 AM EDT 8:22 PM EDT
Nautical Twilight 6:02 AM EDT 8:52 PM EDT
Astronomical Twilight 5:30 AM EDT 9:24 PM EDT
Moon 7:32 AM EDT (4/11) 9:25 PM EDT (4/11)
Length of Visible Light 13h 49m
Length of Day
12h 57m
New Moon, 2% of the Moon is Illuminated
Apr 11
New Moon
Apr 18
First Quarter
Apr 25
Full
May 2
Last Quarter
May 9
New

Hourly Weather History & Observations

Time (EDT) Temp. Dew Point Humidity Pressure Visibility Wind Dir Wind Speed Gust Speed Precip Events Conditions
12:15 AM 68.9 °F 55.4 °F 62% 29.97 in 10.0 mi Calm Calm - N/A   Clear
12:35 AM 68.9 °F 55.6 °F 62% 29.97 in 10.0 mi Calm Calm - N/A   Clear
12:55 AM 67.1 °F 55.4 °F 66% 29.98 in 10.0 mi SE 3.5 mph - N/A   Clear
1:15 AM 67.1 °F 55.6 °F 66% 29.97 in 10.0 mi South 6.9 mph - N/A   Clear
1:35 AM 66.4 °F 55.6 °F 68% 29.98 in 10.0 mi SSE 6.9 mph - N/A   Clear
1:55 AM 65.8 °F 55.6 °F 69% 29.97 in 10.0 mi South 4.6 mph - N/A   Clear
2:15 AM 65.3 °F 55.6 °F 71% 29.97 in 10.0 mi South 4.6 mph - N/A   Clear
2:35 AM 65.3 °F 55.9 °F 72% 29.98 in 10.0 mi South 4.6 mph - N/A   Clear
2:55 AM 64.8 °F 56.1 °F 74% 29.97 in 10.0 mi South 5.8 mph - N/A   Clear
3:15 AM 64.0 °F 56.3 °F 76% 29.97 in 10.0 mi South 6.9 mph - N/A   Clear
3:35 AM 63.7 °F 56.5 °F 77% 29.97 in 10.0 mi South 5.8 mph - N/A   Clear
3:55 AM 63.5 °F 57.0 °F 79% 29.96 in 10.0 mi South 4.6 mph - N/A   Clear
4:15 AM 63.0 °F 56.8 °F 80% 29.96 in 10.0 mi South 4.6 mph - N/A   Clear
4:35 AM 62.2 °F 56.8 °F 82% 29.96 in 10.0 mi South 4.6 mph - N/A   Clear
4:55 AM 61.9 °F 56.8 °F 84% 29.96 in 10.0 mi South 3.5 mph - N/A   Clear
5:15 AM 61.5 °F 57.0 °F 85% 29.96 in 10.0 mi Calm Calm - N/A   Clear
5:35 AM 60.4 °F 57.2 °F 89% 29.96 in 10.0 mi SSE 4.6 mph - N/A   Clear
5:55 AM 60.1 °F 57.2 °F 90% 29.97 in 10.0 mi Calm Calm - N/A   Clear
6:15 AM 59.2 °F 56.7 °F 91% 29.97 in 10.0 mi Calm Calm - N/A   Clear
6:35 AM 60.1 °F 57.4 °F 91% 29.97 in 10.0 mi Calm Calm - N/A   Mostly Cloudy
6:55 AM 59.2 °F 57.0 °F 93% 29.99 in 10.0 mi Calm Calm - N/A   Overcast
7:15 AM 60.1 °F 58.1 °F 93% 29.99 in 10.0 mi Calm Calm - N/A   Overcast
7:35 AM 59.4 °F 57.4 °F 93% 29.99 in 10.0 mi Calm Calm - N/A   Overcast
7:55 AM 60.1 °F 58.3 °F 94% 29.99 in 10.0 mi Calm Calm - N/A   Overcast
8:15 AM 60.1 °F 58.1 °F 93% 29.99 in 10.0 mi Calm Calm - N/A   Overcast
8:35 AM 60.4 °F 58.3 °F 93% 29.99 in 10.0 mi SSW 3.5 mph - N/A   Overcast
8:55 AM 61.9 °F 59.2 °F 91% 30.00 in 10.0 mi South 3.5 mph - N/A   Overcast
9:35 AM 63.7 °F 59.9 °F 87% 29.99 in 10.0 mi South 6.9 mph - N/A   Overcast
10:15 AM 65.7 °F 59.9 °F 82% 29.99 in 10.0 mi SW 10.4 mph - N/A   Scattered Clouds
10:35 AM 66.9 °F 60.3 °F 79% 29.99 in 10.0 mi SSW 9.2 mph - N/A   Scattered Clouds
10:55 AM 68.9 °F 60.3 °F 74% 29.99 in 10.0 mi SW 11.5 mph 16.1 mph N/A   Scattered Clouds
11:15 AM 69.1 °F 60.1 °F 73% 29.98 in 10.0 mi South 8.1 mph - N/A   Scattered Clouds
11:35 AM 70.2 °F 60.4 °F 71% 29.97 in 10.0 mi SSW 8.1 mph - N/A   Clear
11:55 AM 72.5 °F 59.9 °F 64% 29.97 in 10.0 mi South 9.2 mph - N/A   Clear
12:15 PM 74.3 °F 61.0 °F 63% 29.96 in 10.0 mi South 11.5 mph 17.3 mph N/A   Scattered Clouds
12:35 PM 73.6 °F 60.6 °F 64% 29.96 in 10.0 mi South 12.7 mph 16.1 mph N/A   Scattered Clouds
12:55 PM 74.3 °F 60.8 °F 63% 29.95 in 10.0 mi SSW 11.5 mph 16.1 mph N/A   Scattered Clouds
1:15 PM 74.7 °F 60.4 °F 61% 29.94 in 10.0 mi SSW 11.5 mph 16.1 mph N/A   Mostly Cloudy
1:35 PM 75.0 °F 60.6 °F 61% 29.93 in 10.0 mi SSW 11.5 mph 18.4 mph N/A   Mostly Cloudy
1:55 PM 76.8 °F 60.3 °F 56% 29.91 in 10.0 mi South 10.4 mph - N/A   Scattered Clouds
2:15 PM 77.0 °F 60.1 °F 56% 29.91 in 10.0 mi SSW 12.7 mph 16.1 mph N/A   Mostly Cloudy
2:35 PM 76.8 °F 59.5 °F 55% 29.90 in 10.0 mi South 10.4 mph - N/A   Scattered Clouds
2:55 PM 77.0 °F 59.0 °F 54% 29.89 in 10.0 mi SSW 12.7 mph 16.1 mph N/A   Scattered Clouds
3:15 PM 77.0 °F 59.7 °F 55% 29.87 in 10.0 mi South 6.9 mph - N/A   Mostly Cloudy
3:35 PM 77.2 °F 59.9 °F 55% 29.86 in 10.0 mi South 8.1 mph - N/A   Mostly Cloudy
3:55 PM 77.4 °F 59.5 °F 54% 29.85 in 10.0 mi SW 8.1 mph - N/A   Mostly Cloudy
4:15 PM 77.9 °F 59.5 °F 53% 29.84 in 10.0 mi South 8.1 mph - N/A   Mostly Cloudy
4:35 PM 77.5 °F 58.5 °F 52% 29.82 in 10.0 mi South 9.2 mph - N/A   Mostly Cloudy
4:55 PM 79.3 °F 59.5 °F 51% 29.80 in 10.0 mi South 6.9 mph - N/A   Mostly Cloudy
5:15 PM 79.9 °F 58.5 °F 48% 29.80 in 10.0 mi South 9.2 mph - N/A   Scattered Clouds
5:35 PM 79.2 °F 58.1 °F 48% 29.80 in 10.0 mi South 8.1 mph - N/A   Mostly Cloudy
5:55 PM 79.3 °F 58.5 °F 49% 29.79 in 10.0 mi SSW 6.9 mph - N/A   Mostly Cloudy
6:15 PM 79.3 °F 59.0 °F 50% 29.80 in 10.0 mi South 8.1 mph - N/A   Scattered Clouds
6:35 PM 78.1 °F 58.5 °F 51% 29.79 in 10.0 mi South 8.1 mph - N/A   Scattered Clouds
6:55 PM 76.8 °F 61.0 °F 58% 29.79 in 10.0 mi South 5.8 mph - N/A Rain Light Rain
7:15 PM 72.3 °F 63.7 °F 74% 29.77 in 7.0 mi SSE 3.5 mph - 0.01 in Rain Light Rain
7:35 PM 70.0 °F 65.3 °F 85% 29.77 in 10.0 mi Calm Calm - 0.01 in   Overcast
7:55 PM 70.7 °F 64.2 °F 80% 29.77 in 10.0 mi Calm Calm - 0.01 in   Mostly Cloudy
8:15 PM 70.9 °F 64.6 °F 80% 29.77 in 10.0 mi Calm Calm - N/A   Overcast
8:35 PM 71.8 °F 63.7 °F 76% 29.76 in 10.0 mi SSE 3.5 mph - N/A   Overcast
8:55 PM 72.5 °F 62.8 °F 71% 29.76 in 10.0 mi SSE 3.5 mph - N/A Rain Light Rain
9:15 PM 72.5 °F 63.0 °F 72% 29.75 in 10.0 mi Calm Calm - N/A   Overcast
9:35 PM 71.2 °F 63.3 °F 76% 29.77 in 4.0 mi SSW 8.1 mph - 0.09 in Rain Heavy Rain
9:55 PM 68.5 °F 64.4 °F 87% 29.77 in 10.0 mi SE 8.1 mph - 0.20 in   Overcast
10:15 PM 67.1 °F 64.9 °F 93% 29.77 in 10.0 mi SSE 8.1 mph - N/A Rain Light Rain
10:35 PM 67.1 °F 65.3 °F 94% 29.77 in 10.0 mi SSE 6.9 mph - N/A   Mostly Cloudy
10:55 PM 67.1 °F 65.3 °F 94% 29.76 in 10.0 mi SSE 6.9 mph - N/A   Mostly Cloudy
11:15 PM 67.1 °F 65.5 °F 95% 29.77 in 10.0 mi SSE 5.8 mph - N/A   Overcast
11:35 PM 67.5 °F 66.2 °F 96% 29.76 in 7.0 mi SSE 10.4 mph 16.1 mph N/A   Overcast
11:55 PM 68.0 °F 66.4 °F 95% 29.76 in 7.0 mi SSE 11.5 mph 17.3 mph N/A   Overcast